Location: Seagrave Observatory
(41.8500°N, 71.5833°W)
Time: 22:03:16
(UTC-04:00)

Daily predictions for brighter satellites

Satellite Brightness Start Highest point End
(mag) Time Altitude Azimuth Time Altitude Azimuth Time Altitude Azimuth
Cosmos 405 2.9 19:30:04 10° S 19:33:34 72° E 19:37:05 10° NNE
METEOR-M 4.5 19:29:06 10° S 19:34:25 72° WSW 19:39:46 10° NNW
FREGAT/IRIS 2.7 19:31:46 10° SSE 19:34:50 87° WSW 19:37:55 10° NNW
CZ-2D R/B 4.2 19:34:06 10° SE 19:37:25 28° ENE 19:40:47 10° N
Helios 1B rocket 3.8 19:36:43 10° NE 19:39:34 18° E 19:42:24 10° SE
Helios 1A 4.2 19:38:19 10° ESE 19:41:36 23° ENE 19:44:54 10° NNE
Cosmos 1437 Rocket 2.7 19:42:01 10° S 19:45:58 69° E 19:50:01 10° NNE
SJ-6B 3.0 19:42:56 10° S 19:46:40 71° W 19:50:24 10° NNW
H-2A R/B 4.3 19:43:05 10° SSW 19:47:51 30° SE 20:04:22 12° E
Lacrosse 4 Rocket 1.3 19:45:15 10° SSW 19:49:19 88° ESE 19:53:22 10° NNE
Resurs 1-3 3.8 19:48:04 10° SSE 19:52:19 53° ENE 19:56:36 10° N
In-Cosmos 22 4.4 19:52:30 10° N 19:57:37 45° ENE 20:02:39 10° SSE
USA 215 3.7 19:52:19 10° ENE 19:58:23 39° SE 20:04:24 10° SSW
Cosmos 1844 Rocket 2.9 19:53:21 10° SSW 19:59:00 75° WNW 20:04:40 10° NNE
Spot 2 Rocket 3.5 19:54:31 10° SSE 19:59:35 72° ENE 20:04:42 10° N
Cosmos 2150 Rocket 4.0 19:56:17 10° SSW 20:01:26 88° WNW 20:06:38 10° NNE
Cosmos 1758 4.1 20:03:08 10° SSE 20:06:33 28° E 20:10:01 10° NNE
FengYun 1-2 T 4.5 20:01:45 10° S 20:07:17 74° WSW 20:12:55 10° NNW
Cosmos 2278 Rocket 2.3 20:02:40 10° S 20:08:11 56° ESE 20:13:44 10° NNE
Cosmos 1833 Rocket 3.9 20:03:52 10° N 20:08:24 24° NE 20:10:56 18° E
Cosmos 1934 Rocket 3.9 20:05:58 10° S 20:12:07 88° E 20:18:15 10° N
Cosmos 1378 3.8 20:09:14 10° NNW 20:12:56 56° W 20:16:36 10° S
SAR-Lupe-4 3.7 20:10:59 15° SSE 20:13:45 52° ENE 20:17:16 10° N
Cosmos 1898 Rocket 4.4 20:09:23 10° SW 20:14:34 53° WNW 20:19:45 10° N
Cosmos 1939 Rocket 4.0 20:13:32 23° E 20:14:43 26° ENE 20:18:12 10° NNE
Cosmos 990 Rocket 4.0 20:10:19 10° SSW 20:15:35 87° WNW 20:20:52 10° NNE
Tiangong 1 1.0 20:13:27 10° W 20:16:22 64° SSW 20:17:21 36° SE
Cosmos 1953 2.9 20:13:11 10° SSE 20:16:54 35° E 20:20:37 10° NNE
Envisat 3.5 20:14:18 18° SE 20:17:32 39° ENE 20:22:15 10° N
Okean 3 Rocket 3.6 20:13:34 10° N 20:17:55 59° E 20:22:01 11° SSE
FENGYUN 3A 4.4 20:13:07 10° S 20:18:24 54° W 20:23:42 10° NNW
Cosmos 2297 4.3 20:15:35 10° SSE 20:20:33 32° ESE 20:25:34 10° NE
H-2A R/B 3.5 20:18:32 10° S 20:22:19 56° W 20:26:13 10° NNW
Meteor 1-24 Rocket 4.0 20:17:03 10° NNW 20:22:29 69° W 20:28:05 10° S
Cosmos 1125 Rocket 3.9 20:18:22 10° SSE 20:23:06 37° ESE 20:27:51 10° NE
USA 186 0.7 20:24:57 80° ENE 20:24:57 80° ENE 20:27:11 10° N
Abrixas 3.4 20:23:50 10° NW 20:26:27 32° NNE 20:26:54 30° NE
USA 267 4.3 20:27:21 17° ENE 20:31:29 33° NNE 20:37:11 10° NW
Geosat 4.1 20:26:48 10° NNE 20:31:50 78° WNW 20:36:51 10° SSW
SAR-Lupe-1 3.9 20:31:15 26° SSE 20:33:11 81° ENE 20:36:47 10° N
ALOS 4.2 20:33:17 10° SSW 20:37:21 29° W 20:41:27 10° NW
Cosmos 2082 Rocket 2.6 20:32:26 10° NNW 20:37:52 43° ENE 20:39:45 33° ESE
Lacrosse 5 rocket 3.2 20:36:03 10° NNW 20:38:40 17° NNE 20:39:27 16° NE
GP-B 3.0 20:37:25 24° SSE 20:39:58 62° E 20:44:22 10° N
Resurs 01 Rocket 3.0 20:36:45 10° SSW 20:40:52 38° W 20:45:01 10° NNW
CZ-3B DEB 3.1 20:30:08 10° WSW 20:41:03 67° NW 20:45:49 11° NE
Meteor 1-4 Rocket 2.3 20:40:40 52° SSE 20:41:19 67° E 20:44:47 10° NNE
CZ-4B DEB 2.5 20:41:44 79° ESE 20:41:49 80° ENE 20:44:56 10° N
Cosmos 1544 3.0 20:39:26 10° S 20:43:04 82° W 20:46:45 10° N
Cosmos 1818 3.7 20:38:02 10° NNW 20:43:27 60° NE 20:45:20 38° ESE
RESURS DK-1 3.0 20:39:32 10° NW 20:43:34 52° WSW 20:46:08 21° S
ERS-1 Rocket 3.5 20:43:31 36° E 20:44:18 38° ENE 20:48:56 10° N
SL-27 R/B 4.0 20:44:31 10° NW 20:47:48 34° WSW 20:50:28 14° SSW
BREEZE-M DEB (TANK) 3.5 20:45:17 10° SSW 20:48:44 47° SE 20:59:29 10° ENE
Cosmos 2100 Rocket 4.1 20:44:07 16° SSE 20:49:01 51° E 20:55:09 10° NNE
Cosmos 1605 Rocket 4.3 20:43:40 10° SSW 20:49:53 69° W 20:56:14 10° N
Timation 1 Rocket 4.2 20:44:20 10° SSW 20:50:18 70° ESE 20:56:18 10° NNE
Meteor 1-29 2.9 20:47:09 10° N 20:50:37 82° WNW 20:52:30 25° SSW
COSMOS 2487 3.5 20:48:15 10° N 20:50:46 34° NNE 20:50:46 34° NNE
Lacrosse 5 2.1 20:48:37 10° SW 20:53:40 70° NW 20:58:11 13° NE
Cosmos 1766 Rocket 3.5 20:52:44 10° N 20:57:14 73° E 20:57:56 59° SE
SPOT 5 4.1 20:58:37 29° ENE 20:58:37 29° ENE 21:02:50 10° N
Cosmos 1076 Rocket 3.5 20:54:05 10° N 20:58:20 77° W 20:59:48 40° S
Cosmos 1269 Rocket 3.9 20:53:33 10° NNW 20:58:50 70° ENE 21:00:06 51° SE
Cosmos 2098 Rocket 4.4 20:54:05 10° S 21:01:05 85° W 21:08:46 10° N
Meteor 1-21 Rocket 4.3 20:56:31 10° N 21:02:21 86° W 21:05:51 26° S
ARGOS 4.2 21:06:43 30° NE 21:06:43 30° NE 21:10:40 10° N
Cosmos 1802 Rocket 4.0 21:05:09 47° SE 21:06:22 54° E 21:12:21 10° NNE
MetOp-A 4.5 21:11:56 46° ENE 21:11:56 46° ENE 21:16:47 10° N
Cosmos 2344 4.4 21:06:45 10° WSW 21:14:13 53° NW 21:22:53 10° NNE
Cosmos 2061 Rocket 3.9 21:11:25 34° SSE 21:14:17 69° E 21:20:41 10° NNE
Helios 1B rocket 3.9 21:11:11 10° N 21:15:00 37° WNW 21:18:47 10° SW
Cosmos 1867 3.4 21:12:59 10° SSW 21:18:25 80° ESE 21:23:55 10° NE
Timation 2 Rocket 3.8 21:12:20 10° NNW 21:18:43 75° ENE 21:19:44 62° SE
Cosmos 1674 3.4 21:15:29 10° NNW 21:18:33 51° NW 21:18:33 51° NW
Cosmos-2242 3.4 21:22:00 56° NNW 21:22:00 56° NNW 21:25:28 10° N
Cosmos 1340 Rocket 4.0 21:24:37 10° N 21:27:12 38° NNW 21:27:12 38° NNW
Terra 4.2 21:34:10 12° NNE 21:34:10 12° NNE 21:34:39 10° NNE
Cosmos 1470 4.4 21:33:41 30° NNW 21:33:41 30° NNW 21:35:52 10° N
Cosmos 372 Rocket 4.2 21:29:52 10° SSW 21:34:56 67° WNW 21:40:04 10° NNE
USA 215 3.6 21:35:07 10° NE 21:41:34 63° NW 21:47:59 10° WSW
H-2A R/B 3.5 21:45:55 29° NNE 21:45:55 29° NNE 21:48:51 10° N
Cosmos 1459 Rocket 4.4 21:45:22 23° SSW 21:49:21 59° W 21:55:29 10° N
NOAA 11 4.4 21:51:35 65° NNW 21:51:35 65° NNW 21:56:15 10° NNW
Cosmos 2173 Rocket 4.4 21:48:08 28° SSW 21:51:24 58° W 21:57:35 10° N
Cosmos 2278 Rocket 4.4 21:48:06 10° WSW 21:52:38 24° NW 21:57:11 10° N
Cosmos 1833 Rocket 3.2 21:47:11 10° NNW 21:52:39 54° WSW 21:52:40 54° WSW
CZ-3 Stage 3 3.8 21:33:58 10° W 21:53:59 39° SSW 21:54:42 39° SSW
USA 267 3.3 22:14:41 71° NNW 22:14:41 71° NNW 22:20:31 10° NW
Lacrosse 5 rocket 4.3 22:14:36 10° NW 22:15:09 14° NW 22:15:09 14° NW
Cosmos 2082 Rocket 3.8 22:16:59 10° NW 22:21:38 28° WSW 22:21:38 28° WSW
Lacrosse 5 4.1 22:33:38 10° WNW 22:37:27 21° NNW 22:37:28 21° NNW
CZ-3B DEB 4.5 22:50:23 10° WNW 22:53:28 16° NNW 22:53:28 16° NNW
